Back to catalog

SVOM

AliveScienceLEO
NORAD 60088·PAYLOAD·🇨🇳 China
This satellite name has not been confirmed by official sources yet.

Launched Jun 22, 2024 from Xichang Satellite Launch Center

Loading…

Next Passes (next 24 hours)

TLE

FreshSource: Space-Track

Epoch: Sep 14, 2026, 10:50 UTC

1 60088U 24116A   26257.45159488  .00001438  00000-0  14970-3 0  9992
2 60088  28.9949 265.5732 0003806 254.7263 105.2911 14.85124143120949

Track SVOM in real time with AllMySat

Download on the App Store